This demonstration page uses our WeatherBlox Daily Observations layout. Learn more.

Left ArrowRight Arrow

47.50024, -111.30081

Hourly Observations for May 5, 2017

Temp ( °F °C ) Dew Point ( °F °C ) Humidity (%) Winds ( mph kmh ) Pressure ( in mb ) Visibility ( mi km ) Precip ( " mm )
12:53 am 00:53 Clear 51 10.6 40 4.4 66 66 Calm 29.90 1013 10 16 0.00 0.00
1:53 am 01:53 Clear 56 13.3 40 4.4 55 55 S 9 15 29.88 1012 10 16 0.00 0.00
2:53 am 02:53 Clear 54 12.2 38 3.3 55 55 VRB 3 6 29.86 1011 10 16 0.00 0.00
3:53 am 03:53 Clear 57 13.9 38 3.3 49 49 S 10 17 29.84 1011 10 16 0.00 0.00
4:53 am 04:53 Clear 62 16.7 36 2.2 38 38 S 15 24 29.81 1010 10 16 0.00 0.00
5:53 am 05:53 Clear 50 10 37 2.8 61 61 SSW 9 15 29.83 1010 10 16 0.00 0.00
6:53 am 06:53 Sunny 59 15 37 2.8 44 44 S 13 20 29.80 1009 10 16 0.00 0.00
7:53 am 07:53 Sunny 65 18.3 37 2.8 36 36 SSW 16 26 29.78 1008 10 16 0.00 0.00
8:53 am 08:53 Sunny 70 21.1 38 3.3 31 31 SSW 17 28 29.76 1008 10 16 0.00 0.00
9:53 am 09:53 Sunny 73 22.8 36 2.2 26 26 SSW 16 26 29.75 1007 10 16 0.00 0.00
10:53 am 10:53 Sunny 78 25.6 37 2.8 23 23 SSW 18 30 29.73 1007 10 16 0.00 0.00
11:53 am 11:53 Sunny 80 26.7 38 3.3 22 22 SSW 16 26 29.72 1007 10 16 0.00 0.00
12:53 pm 12:53 Sunny 82 27.8 37 2.8 20 20 WSW 9 15 29.71 1006 10 16 0.00 0.00
1:53 pm 13:53 Sunny 83 28.3 34 1.1 17 17 WSW 10 17 29.68 1005 10 16 0.00 0.00
2:53 pm 14:53 Sunny 84 28.9 34 1.1 17 17 W 8 13 29.68 1005 10 16 0.00 0.00
3:53 pm 15:53 Sunny 84 28.9 36 2.2 18 18 SSW 6 9 29.65 1004 10 16 0.00 0.00
4:53 pm 16:53 Sunny 84 28.9 32 0 15 15 W 5 7 29.62 1003 10 16 0.00 0.00
5:53 pm 17:53 Sunny 86 30 37 2.8 18 18 N 5 7 29.62 1003 10 16 0.00 0.00
6:53 pm 18:53 Sunny 84 28.9 41 5 22 22 Calm 29.58 1002 10 16 0.00 0.00
7:53 pm 19:53 Sunny 77 25 37 2.8 24 24 E 6 9 29.57 1001 10 16 0.00 0.00
8:53 pm 20:53 Clear 70 21.1 43 6.1 38 38 Calm 29.59 1002 10 16 0.00 0.00
9:51 pm 21:51 Mostly Cloudy with Light Rain 68 20 45 7 43 43 WNW 17 28 29.56 1001 10 16 0.00 0.03
9:53 pm 21:53 Cloudy with Light Rain 68 20 45 7.2 44 44 WNW 16 26 29.65 1004 10 16 0.00 0.03
10:53 pm 22:53 Clear 61 16.1 46 7.8 58 58 NW 8 13 29.62 1003 10 16 0.00 0.03
11:53 pm 23:53 Clear 59 15 47 8.3 64 64 NNW 7 11 29.65 1004 10 16 0.00 0.00

Powered by AerisWeather